When you browse on this site, cookies collect data to enhance your experience and personalize the content and advertising you see.
Visit our Privacy Policy to learn more. By continuing to use the site, you agree to this use of cookies and data.
  • In Spain
  • List of Countries
  • For 7 days
  • Water Temperature
  • Weather Map
  • Weather Widgets
  • user-avatar
    Login

    Hourly Weather Abovyan

    Today, 7 April, Tuesday

    Time Temperature Precipitation Wind Pressure Humidity
    00:00 +9°C° 0.1 mm 0 mps 671 mmHg 87%
    01:00 +10°C° 0.1 mm 1 mps 671 mmHg 87%
    02:00 +10°C° 0.1 mm 1 mps 671 mmHg 86%
    03:00 +10°C° 0 mm 1 mps 671 mmHg 87%
    04:00 +9°C° 0.1 mm 1 mps 671 mmHg 85%
    05:00 +8°C° 0.1 mm 2 mps 671 mmHg 83%
    06:00 +8°C° 0.1 mm 2 mps 671 mmHg 81%
    07:00 +8°C° 0.2 mm 3 mps 672 mmHg 78%
    08:00 +8°C° 0.2 mm 3 mps 672 mmHg 75%
    09:00 +8°C° 0 mm 3 mps 672 mmHg 71%
    10:00 +9°C° 0.1 mm 3 mps 672 mmHg 68%
    11:00 +10°C° 0.1 mm 3 mps 673 mmHg 65%
    12:00 +10°C° 0.1 mm 3 mps 673 mmHg 62%
    13:00 +10°C° 0 mm 3 mps 673 mmHg 60%
    14:00 +11°C° 0 mm 3 mps 673 mmHg 58%
    15:00 +11°C° 0 mm 3 mps 673 mmHg 56%
    16:00 +10°C° 0 mm 3 mps 673 mmHg 59%
    17:00 +8°C° 0 mm 4 mps 673 mmHg 61%
    18:00 +7°C° 0 mm 5 mps 673 mmHg 64%
    19:00 +6°C° 0 mm 4 mps 673 mmHg 64%
    20:00 +5°C° 0 mm 4 mps 673 mmHg 65%
    21:00 +4°C° 0 mm 4 mps 674 mmHg 65%
    22:00 +3°C° 0 mm 3 mps 674 mmHg 64%
    23:00 +3°C° 0 mm 3 mps 674 mmHg 63%

    Tomorrow, 8 April, Wednesday

    Time Temperature Precipitation Wind Pressure Humidity
    00:00 +2°C° 0 mm 3 mps 675 mmHg 62%
    01:00 +3°C° 0 mm 2 mps 675 mmHg 61%
    02:00 +3°C° 0 mm 2 mps 675 mmHg 61%
    03:00 +3°C° 0 mm 2 mps 675 mmHg 60%
    04:00 +2°C° 0 mm 2 mps 675 mmHg 61%
    05:00 +2°C° 0 mm 2 mps 676 mmHg 61%
    06:00 +2°C° 0 mm 2 mps 676 mmHg 62%
    07:00 +4°C° 0 mm 1 mps 676 mmHg 58%
    08:00 +5°C° 0 mm 1 mps 677 mmHg 54%
    09:00 +7°C° 0 mm 1 mps 677 mmHg 50%
    10:00 +7°C° 0 mm 2 mps 677 mmHg 48%
    11:00 +8°C° 0 mm 2 mps 677 mmHg 45%
    12:00 +9°C° 0 mm 2 mps 677 mmHg 42%
    13:00 +10°C° 0 mm 2 mps 676 mmHg 42%
    14:00 +10°C° 0 mm 2 mps 676 mmHg 41%
    15:00 +11°C° 0 mm 3 mps 675 mmHg 40%
    16:00 +10°C° 0 mm 3 mps 675 mmHg 43%
    17:00 +9°C° 0 mm 3 mps 675 mmHg 47%
    18:00 +9°C° 0 mm 3 mps 675 mmHg 51%
    19:00 +7°C° 0 mm 3 mps 675 mmHg 53%
    20:00 +5°C° 0 mm 3 mps 675 mmHg 55%
    21:00 +4°C° 0 mm 3 mps 676 mmHg 58%
    22:00 +4°C° 0 mm 3 mps 675 mmHg 58%
    23:00 +4°C° 0 mm 2 mps 675 mmHg 59%

    Day after tomorrow, 9 April, Thursday

    Time Temperature Precipitation Wind Pressure Humidity
    00:00 +4°C° 0 mm 2 mps 675 mmHg 59%
    01:00 +4°C° 0 mm 2 mps 674 mmHg 60%
    02:00 +4°C° 0 mm 1 mps 673 mmHg 62%
    03:00 +4°C° 0 mm 1 mps 673 mmHg 63%
    04:00 +4°C° 0 mm 1 mps 672 mmHg 64%
    05:00 +4°C° 0 mm 1 mps 672 mmHg 64%
    06:00 +4°C° 0 mm 1 mps 672 mmHg 64%
    07:00 +5°C° 0 mm 1 mps 671 mmHg 60%
    08:00 +7°C° 0 mm 1 mps 671 mmHg 56%
    09:00 +7°C° 0 mm 2 mps 670 mmHg 53%
    10:00 +8°C° 0 mm 2 mps 670 mmHg 50%
    11:00 +9°C° 0 mm 2 mps 670 mmHg 48%
    12:00 +12°C° 0 mm 2 mps 669 mmHg 46%
    13:00 +12°C° 0 mm 2 mps 669 mmHg 45%
    14:00 +13°C° 0 mm 2 mps 668 mmHg 44%
    15:00 +14°C° 0 mm 2 mps 668 mmHg 44%
    16:00 +14°C° 0 mm 2 mps 668 mmHg 46%
    17:00 +13°C° 0 mm 1 mps 668 mmHg 48%
    18:00 +13°C° 0 mm 1 mps 668 mmHg 50%
    19:00 +12°C° 0 mm 1 mps 668 mmHg 53%
    20:00 +11°C° 0 mm 1 mps 668 mmHg 55%
    21:00 +10°C° 0 mm 1 mps 668 mmHg 58%
    22:00 +9°C° 0 mm 1 mps 668 mmHg 59%
    23:00 +9°C° 0 mm 1 mps 668 mmHg 61%

    10 April, Friday

    Time Temperature Precipitation Wind Pressure Humidity
    00:00 +9°C° 0 mm 1 mps 667 mmHg 62%
    01:00 +8°C° 0 mm 1 mps 667 mmHg 63%
    02:00 +8°C° 0 mm 1 mps 667 mmHg 64%
    03:00 +8°C° 0 mm 1 mps 666 mmHg 65%
    04:00 +8°C° 0 mm 1 mps 666 mmHg 66%
    05:00 +8°C° 0 mm 1 mps 666 mmHg 67%
    06:00 +8°C° 0 mm 1 mps 666 mmHg 67%
    07:00 +9°C° 0 mm 1 mps 666 mmHg 62%
    08:00 +11°C° 0 mm 1 mps 666 mmHg 57%
    09:00 +13°C° 0 mm 1 mps 666 mmHg 52%
    10:00 +14°C° 0.1 mm 1 mps 666 mmHg 51%
    11:00 +15°C° 0.1 mm 2 mps 666 mmHg 49%
    12:00 +15°C° 0.1 mm 2 mps 666 mmHg 48%
    13:00 +16°C° 0.1 mm 2 mps 666 mmHg 46%
    14:00 +17°C° 0.1 mm 2 mps 665 mmHg 44%
    15:00 +17°C° 0.1 mm 2 mps 665 mmHg 42%
    16:00 +17°C° 0 mm 2 mps 665 mmHg 46%
    17:00 +16°C° 0 mm 2 mps 665 mmHg 49%
    18:00 +15°C° 0 mm 2 mps 665 mmHg 52%
    19:00 +13°C° 0.2 mm 3 mps 666 mmHg 56%
    20:00 +12°C° 0.2 mm 3 mps 666 mmHg 60%
    21:00 +11°C° 0.2 mm 3 mps 666 mmHg 64%
    22:00 +10°C° 0.3 mm 3 mps 666 mmHg 66%
    23:00 +10°C° 0.3 mm 3 mps 666 mmHg 69%

    11 April, Saturday

    Time Temperature Precipitation Wind Pressure Humidity
    00:00 +10°C° 0.3 mm 3 mps 666 mmHg 71%
    01:00 +9°C° 0.7 mm 3 mps 665 mmHg 74%
    02:00 +9°C° 0.7 mm 3 mps 665 mmHg 77%
    03:00 +8°C° 0.7 mm 3 mps 665 mmHg 80%
    04:00 +8°C° 0.4 mm 2 mps 665 mmHg 80%
    05:00 +8°C° 0.4 mm 2 mps 665 mmHg 80%
    06:00 +9°C° 0.4 mm 1 mps 665 mmHg 79%
    07:00 +9°C° 0.3 mm 1 mps 665 mmHg 78%
    08:00 +10°C° 0.3 mm 1 mps 665 mmHg 76%
    09:00 +10°C° 0.3 mm 1 mps 665 mmHg 75%
    10:00 +11°C° 0.1 mm 1 mps 665 mmHg 71%
    11:00 +12°C° 0.1 mm 1 mps 665 mmHg 68%
    12:00 +12°C° 0.1 mm 1 mps 665 mmHg 64%
    13:00 +13°C° 0.2 mm 2 mps 665 mmHg 62%
    14:00 +13°C° 0.2 mm 2 mps 665 mmHg 60%
    15:00 +13°C° 0.2 mm 3 mps 666 mmHg 57%
    16:00 +12°C° 0.1 mm 3 mps 666 mmHg 58%
    17:00 +11°C° 0.1 mm 4 mps 666 mmHg 59%
    18:00 +10°C° 0.1 mm 4 mps 666 mmHg 60%
    19:00 +10°C° 0 mm 4 mps 666 mmHg 60%
    20:00 +8°C° 0 mm 4 mps 667 mmHg 61%
    21:00 +8°C° 0 mm 3 mps 668 mmHg 62%
    22:00 +7°C° 0 mm 3 mps 668 mmHg 61%
    23:00 +7°C° 0 mm 3 mps 668 mmHg 60%

    12 April, Sunday

    Time Temperature Precipitation Wind Pressure Humidity
    00:00 +5°C° 0 mm 3 mps 668 mmHg 60%
    01:00 +5°C° 0 mm 3 mps 668 mmHg 59%
    02:00 +4°C° 0 mm 3 mps 668 mmHg 57%
    03:00 +4°C° 0 mm 3 mps 668 mmHg 56%
    04:00 +4°C° 0 mm 3 mps 669 mmHg 56%
    05:00 +3°C° 0 mm 3 mps 669 mmHg 57%
    06:00 +3°C° 0 mm 3 mps 669 mmHg 57%
    07:00 +6°C° 0 mm 2 mps 670 mmHg 53%
    08:00 +7°C° 0 mm 2 mps 670 mmHg 49%
    09:00 +8°C° 0 mm 2 mps 670 mmHg 45%
    10:00 +10°C° 0 mm 2 mps 670 mmHg 43%
    11:00 +12°C° 0 mm 2 mps 670 mmHg 41%
    12:00 +13°C° 0 mm 2 mps 670 mmHg 38%
    13:00 +13°C° 0 mm 1 mps 670 mmHg 37%
    14:00 +14°C° 0 mm 1 mps 670 mmHg 35%
    15:00 +15°C° 0 mm 1 mps 670 mmHg 33%
    16:00 +14°C° 0 mm 1 mps 670 mmHg 35%
    17:00 +14°C° 0 mm 1 mps 670 mmHg 37%
    18:00 +12°C° 0 mm 0 mps 670 mmHg 39%
    19:00 +12°C° 0 mm 1 mps 670 mmHg 42%
    20:00 +10°C° 0 mm 2 mps 671 mmHg 45%
    21:00 +9°C° 0 mm 2 mps 671 mmHg 48%
    22:00 +8°C° 0 mm 2 mps 671 mmHg 50%
    23:00 +8°C° 0 mm 2 mps 671 mmHg 52%
    Show more